Other Public Products
Issued by NWS Charleston, SC

Home | Current Version | Previous Version | Text Only | Print | Product List | Glossary On
Versions: 1 2 3 4 5 6 7 8 9 10 11 12 13 14 15 16 17 18 19 20 21 22 23 24 25 26 27 28 29 30 31 32 33 34 35 36 37 38 39 40 41 42 43 44 45 46 47 48 49 50
000
FPUS82 KCHS 190927
OPUCHS

TEST...KCHS/KSAV Gateway Observations...TEST
National Weather Service Charleston SC
500 AM EDT THU OCT 19 2017

NOTE: "fair" indicates few or no clouds below 12,000 feet with no
significant weather and/or obstructions to visibility.

SCZ050-WAZ558-NCZ071-TXZ119-213-PAZ071-DCZ001-FLZ074-172-MI076-
NYZ176-178-MAZ016-IL014-TNZ027-NJZ106-GAZ044-MD014-191000-

...Gateway Observations for Charleston International...

CITY           SKY/WX    TMP DP  RH WIND       PRES   REMARKS
Chas Airport   CLEAR     57  53  86 NE7       30.21F
Seattle        LGT RAIN  53  51  93 S12G20    29.63S
Charlotte      CLEAR     39  39 100 CALM      30.30R
Dallas DFW     CLOUDY    62  49  62 S6        30.10S
Dallas Love    MOCLDY    63  50  62 SE9       30.11S
Philladelphia  PTCLDY    52  47  83 CALM      30.28S
Wash National  MOCLDY    51  47  86 SW3       30.28S
Baltimore      PTCLDY    43  43 100 CALM      30.27S
Miami          MOCLDY    77  73  87 N5        29.98S
Detroit        CLEAR     53  44  71 SW13      30.07F
Newark         PTCLDY    50  46  86 SW7       30.26S
Laguardia      PTCLDY    59  46  62 SW5       30.25S
J F K          CLEAR     54  49  83 SW9       30.27S
Boston Logan   CLEAR     52  48  86 SW7       30.24R
Ft. Lauderdale PTCLDY    74  74 100 CALM      29.97R
Chicago O`Hare PTCLDY    56  46  69 SW8       30.04R
Chicago Midway PTCLDY    56  48  74 SW9       30.05R
Houston Bush   CLOUDY    61  60  97 N3        30.10F
Houston Hobby  MOCLDY    69  62  78 CALM      30.09F
Nashville      PTCLDY    48  44  86 CALM      30.24S
Atlanta        CLEAR     52  43  71 NE9       30.27S

$$

GAZ044-118-TXZ119-213-NCZ071-DCZ001-MDZ014-506-PAZ021-071-NJZ106-
NYZ176-178-MAZ106-OHZ011-021-055-MIZ076-KYZ091-ILZ014-INZ047-
MNZ060-ONZ431-191000-

...Gateway Observations for Savannah International...

CITY           SKY/WX    TMP DP  RH WIND       PRES   REMARKS
Savannah Arpt  CLEAR     59  55  87 N7        30.20F
Atlanta        CLEAR     52  43  71 NE9       30.27S
Charlotte      CLEAR     39  39 100 CALM      30.30R
Dallas DFW     CLOUDY    62  49  62 S6        30.10S
Houston Bush   CLOUDY    61  60  97 N3        30.10F
Wash National  MOCLDY    51  47  86 SW3       30.28S
Wash Dulles    PTCLDY    40  40 100 CALM      30.27R
Baltimore      PTCLDY    43  43 100 CALM      30.27S
Philadelphia   PTCLDY    52  47  83 CALM      30.28S
Newark         PTCLDY    50  46  86 SW7       30.26S
Laguardia      PTCLDY    59  46  62 SW5       30.25S
J F K          CLEAR     54  49  83 SW9       30.27S
Boston         CLEAR     52  48  86 SW7       30.24R
Pittsburg      CLEAR     46  40  79 CALM      30.20S
Akron          CLEAR     47  39  74 SW7       30.18S
Cleveland      CLEAR     54  43  66 SW9       30.17R
Cincinnati     CLEAR     49  46  90 SW6       30.21R
Columbus       CLEAR     42  42  97 SW6       30.21R
Detroit        CLEAR     53  44  71 SW13      30.07F
Chicago O`Hare PTCLDY    56  46  69 SW8       30.04R
Minneapolis    CLOUDY    47  33  58 CALM      30.03S
Indianapolis   PTCLDY    53  46  77 S10       30.17F
Toronto Canada CLEAR     55  46  71 SW10      30.03S

$$




USA.gov is the U.S. government's official web portal to all federal, state and local government web resources and services.